Regional Weather Roundup
Issued by NWS Northern Indiana

Home | Current Version | Previous Version | Graphics & Text | Print | Product List | Glossary On
Versions: 1 2 3 4 5 6 7 8 9 10 11 12 13 14 15 16 17 18 19 20 21 22 23 24 25 26 27 28 29 30 31 32 33 34 35 36 37 38 39 40 41 42 43 44 45 46 47 48 49 50
000
ASUS43 KIWX 011110
RWRIWX

KIWX WEATHER ROUNDUP
NATIONAL WEATHER SERVICE NORTHERN INDIANA
600 AM EST SUN MAR 01 2015

NOTE: "FAIR" INDICATES FEW OR NO CLOUDS BELOW 12,000 FEET WITH NO
SIGNIFICANT WEATHER AND/OR OBSTRUCTIONS TO VISIBILITY.

* THESE STATIONS ARE NOT UNDER NWS QUALITY CONTROL. THEY ALSO MAY NOT
  REPORT WEATHER SUCH AS PRECIPITATION OR FOG.

INZ001>027-011200-
NORTHERN INDIANA

CITY           SKY/WX    TMP DP  RH WIND       PRES   REMARKS
GARY*          CLOUDY    18  12  79 CALM      30.40F
VALPARAISO     CLOUDY    16  13  88 NE3       30.38S
MICHIGAN CITY* MOCLDY    18  10  73 CALM      30.40R
LAPORTE*       CLOUDY    17  15  90 CALM      30.39R
KNOX*            N/A     19  10  68 CALM      30.38S
SOUTH BEND     CLOUDY    17  12  80 CALM      30.39S
GOSHEN         CLOUDY    17  12  80 E3        30.37F HAZE
MONTICELLO*    LGT SNOW  19  17  93 E3        30.37F
LOGANSPORT*    LGT SNOW  19  18  93 CALM      30.39S
ROCHESTER*     LGT SNOW  21  19  93 SE3       30.38F
WARSAW*        LGT SNOW  18  16  93 CALM      30.37F
ANGOLA*        MOCLDY    14  12  92 CALM      30.37R
FORT WAYNE     LGT SNOW  17  14  88 E5        30.39S FOG     WCI  10
HUNTINGTON*    LGT SNOW  17  13  82 CALM      30.38S
PERU/GRISSOM   LGT SNOW  19  16  86 E3        30.36F FOG
MARION*        LGT SNOW  20  18  91 CALM      30.38S

$$
INZ028>050-011200-
CENTRAL INDIANA

CITY           SKY/WX    TMP DP  RH WIND       PRES   REMARKS
LAFAYETTE      LGT SNOW  20  18  92 E3        30.38F FOG
KOKOMO*        CLOUDY    19  18  93 CALM      30.38R
MUNCIE*        LGT SNOW  23  21  92 CALM      30.37S FOG
INDIANAPOLIS   LGT SNOW  24  21  88 E3        30.36S VSB 3/4

$$
MIZ043>046-050>051-056>058-064>065-071>073-077>080-011200-
SOUTHWEST LOWER MICHIGAN

CITY           SKY/WX    TMP DP  RH WIND       PRES   REMARKS
BATTLE CREEK   PTCLDY    12   9  87 CALM      30.39S
BENTON HARBOR  MOCLDY    12  10  92 NE3       30.41R
COLDWATER*     FLURRIES  15  11  85 CALM      30.38R
HILLSDALE*     CLOUDY    15  12  88 CALM      30.36S
HOLLAND        CLOUDY    12   8  84 SE6       30.40S FOG     WCI   3
GRAND RAPIDS   PTCLDY     7   4  87 SE3       30.39F FOG
KALAMAZOO      MOCLDY    12   8  84 CALM      30.39S
STURGIS*       CLOUDY    16  12  86 CALM      30.37S
THREE RIVERS*  CLOUDY    14  11  87 CALM      30.39S

$$
OHZ001>008-015>018-024>025-011200-
NORTHWEST OHIO

CITY           SKY/WX    TMP DP  RH WIND       PRES   REMARKS
WAUSEON*       LGT SNOW  16  14  93 NE5       30.40S WCI   9
DEFIANCE       LGT SNOW  17  13  84 NE3       30.41S FOG
FINDLAY        LGT SNOW  21  17  84 E3        30.38S FOG
TOLEDO EXPRESS LGT SNOW  16  13  88 CALM      30.41S FOG
TOLEDO METCALF LGT SNOW  18  13  80 CALM      30.42S
LIMA           LGT SNOW  23  19  85 CALM      30.36S VSB 1

$$
AND FOR LAKE MICHIGAN COASTAL AND OPEN LAKE BUOY OBSERVATIONS

STATION/POSITION TEMP    WIND        PRES    VSBY  WAVE
                 AIR SEA DIR/SP/G                  HT/PER
                 (F)     (DEG/KT/KT) (MB)    (MI)  (FT/S)
CALUMET HARBOR    18      CALM  /  1 1027.7S
MICHIGAN CITY     17      30/  2/  4   N/A
SAINT JOSEPH      15      70/  1/  2 1030.1S

$$
&&


USA.gov is the U.S. government's official web portal to all federal, state and local government web resources and services.